User: anonymous   Login
Location: Unspecified
(0.0000°N, 0.0000°E)
Time: 03:34:00
(UTC+00:00)
Language:

Milstar 3 - Orbit

View from above orbital plane
View from above orbital plane
View from above satellite
View from above satellite

Ground track
Ground track

The orbit data is extracted from the following two-line orbital elements,

1 25724U 99023A   17345.75756468 0.00000000  00000-0  00000-0 0    04
2 25724  28.2236 221.4761 2132299 297.7716  62.2279  9.37466607    01
Epoch (UTC): 11 December 2017 18:10:53
Eccentricity: 0.2132299
inclination: 28.2236°
perigee height: 1097 km
apogee height: 5148 km
right ascension of ascending node: 221.4761°
argument of perigee: 297.7716°
revolutions per day: 9.37466607
mean anomaly at epoch: 62.2279°
orbit number at epoch: 0

The dashed part of the orbit path shows where the satellite is in the earth's shadow,  

DLR